SBS 1

导读

SBS 1是美国卫星商业系统(Satellite Business Systems)订购的地球静止轨道通信卫星,1980年11月15日发射入轨,由休斯公司(现波音公司)基于HS-376平台研制,搭载Ku波段有效载荷,定点于西经149°经度轨道,后期产权转售给休斯通信,为美国商业卫星通信发展奠定了早期实践基础,至今仍保留可追踪的轨道运行数据。

Basic Information
目录编号:
12065
目录名称:
SBS 1
国际标识:
1980-091A
轨道中心:
EARTH
卫星名称:
SBS 1
卫星全名:
--
卫星状态:
在轨 (已飞行16654 天)
发射日期:
1980-11-15 UTC
国别 :
美国 (US)
星等 :
--
Orbit Information
数据来源 国际轨道数据 AOE轨道数据
星历时间 2026-06-20T17:51:03+0800
1天前
查看轨道信息
2026-06-20T23:00:00+0800
19小时前
查看轨道信息
半长轴 42290.421km 42290.675km
偏心率 0.0007718 0.0007856
轨道倾角 9.989° 9.988°
近地点辐角 181.029° 178.591°
升交点赤经 317.779° 317.778°
平近点角 117.741° 197.279°
近地点 35879.644km 35879.314km
远地点 35944.924km 35945.762km
周期 1442.523分钟 1442.536分钟
每日圈数 0.998251 0.998242
Detailed Information
使用方式:
暂无
2D Orbit Map
3D Orbit Map
Orbit Altitude Analysis Chart
Orbit Inclination Analysis Chart
Orbit Comprehensive Analysis Chart
View Comprehensive Chart